Time,TemperatureF,DewpointF,PressureIn,WindDirection,WindDirectionDegrees,WindSpeedMPH,WindSpeedGustMPH,Humidity,HourlyPrecipIn,Conditions,Clouds,dailyrainin,SoftwareType,DateUTC
2013-06-25 00:01:00,68.0,65.0,29.91,WSW,240,3.0,10.0,89,0.00,,,0.10,,2013-06-25 04:01:00,
2013-06-25 00:11:00,68.0,65.0,29.90,SSW,213,0.0,4.0,90,0.00,,,0.10,,2013-06-25 04:11:00,
2013-06-25 00:22:00,68.0,65.0,29.88,SSW,195,0.0,2.0,91,0.00,,,0.10,,2013-06-25 04:22:00,
2013-06-25 00:43:00,68.0,66.0,29.89,SSW,195,0.0,0.0,92,0.00,,,0.10,,2013-06-25 04:43:00,
2013-06-25 00:52:00,69.0,66.0,29.91,SSW,209,0.0,3.0,91,0.00,,,0.10,,2013-06-25 04:52:00,
2013-06-25 01:01:00,69.0,66.0,29.91,SSW,209,0.0,3.0,91,0.00,,,0.10,,2013-06-25 05:01:00,
2013-06-25 01:11:00,69.0,66.0,29.93,West,263,7.0,12.0,89,0.00,,,0.10,,2013-06-25 05:11:00,
2013-06-25 01:22:00,69.0,66.0,29.92,SW,232,2.0,8.0,90,0.00,,,0.10,,2013-06-25 05:22:00,
2013-06-25 01:44:00,69.0,66.0,29.93,WSW,243,4.0,8.0,90,0.00,,,0.10,,2013-06-25 05:44:00,
2013-06-25 01:52:00,69.0,66.0,29.93,WSW,248,5.0,11.0,90,0.00,,,0.10,,2013-06-25 05:52:00,
2013-06-25 02:01:00,69.0,65.0,29.94,WSW,238,5.0,9.0,88,0.00,,,0.10,,2013-06-25 06:01:00,
2013-06-25 02:11:00,69.0,65.0,29.94,WSW,238,5.0,9.0,88,0.00,,,0.10,,2013-06-25 06:11:00,
2013-06-25 02:33:00,70.0,66.0,29.94,WSW,242,6.0,11.0,87,0.00,,,0.10,,2013-06-25 06:33:00,
2013-06-25 02:43:00,70.0,66.0,29.94,SW,231,4.0,11.0,87,0.00,,,0.10,,2013-06-25 06:43:00,
2013-06-25 02:52:00,70.0,66.0,29.93,WSW,240,4.0,8.0,88,0.00,,,0.10,,2013-06-25 06:52:00,
2013-06-25 03:02:00,69.0,66.0,29.93,SW,236,3.0,6.0,90,0.00,,,0.10,,2013-06-25 07:02:00,
2013-06-25 03:11:00,69.0,66.0,29.93,SW,236,3.0,6.0,90,0.00,,,0.10,,2013-06-25 07:11:00,
2013-06-25 03:22:00,69.0,66.0,29.93,SW,229,4.0,8.0,90,0.00,,,0.10,,2013-06-25 07:22:00,
2013-06-25 03:33:00,69.0,66.0,29.93,WSW,249,2.0,6.0,91,0.00,,,0.10,,2013-06-25 07:33:00,
2013-06-25 03:43:00,69.0,66.0,29.93,WSW,249,2.0,6.0,91,0.00,,,0.10,,2013-06-25 07:43:00,
2013-06-25 03:52:00,69.0,66.0,29.93,WSW,258,2.0,8.0,91,0.00,,,0.10,,2013-06-25 07:52:00,
2013-06-25 04:11:00,69.0,67.0,29.93,West,263,3.0,6.0,92,0.00,,,0.10,,2013-06-25 08:11:00,
2013-06-25 04:43:00,69.0,67.0,29.94,WSW,243,1.0,6.0,92,0.00,,,0.10,,2013-06-25 08:43:00,
2013-06-25 04:53:00,69.0,67.0,29.93,WSW,241,3.0,6.0,92,0.00,,,0.10,,2013-06-25 08:53:00,
2013-06-25 05:12:00,69.0,67.0,29.93,SSW,213,1.0,6.0,92,0.00,,,0.10,,2013-06-25 09:12:00,
2013-06-25 05:33:00,69.0,67.0,29.93,WSW,240,2.0,6.0,93,0.00,,,0.10,,2013-06-25 09:33:00,
2013-06-25 05:43:00,68.0,66.0,29.93,WSW,238,1.0,5.0,94,0.00,,,0.10,,2013-06-25 09:43:00,
2013-06-25 05:53:00,69.0,67.0,29.93,SW,233,0.0,5.0,94,0.00,,,0.10,,2013-06-25 09:53:00,
2013-06-25 06:01:00,69.0,67.0,29.93,SW,233,0.0,5.0,94,0.00,,,0.10,,2013-06-25 10:01:00,
2013-06-25 06:11:00,69.0,68.0,29.94,WSW,250,2.0,5.0,95,0.00,,,0.10,,2013-06-25 10:11:00,
2013-06-25 06:33:00,69.0,68.0,29.94,SW,218,0.0,4.0,95,0.00,,,0.10,,2013-06-25 10:33:00,
2013-06-25 06:42:00,69.0,68.0,29.94,SSW,201,0.0,4.0,95,0.00,,,0.10,,2013-06-25 10:42:00,
2013-06-25 06:52:00,69.0,68.0,29.94,SSW,209,2.0,5.0,95,0.00,,,0.10,,2013-06-25 10:52:00,
2013-06-25 07:02:00,69.0,68.0,29.94,SSW,209,2.0,5.0,95,0.00,,,0.10,,2013-06-25 11:02:00,
2013-06-25 07:12:00,70.0,68.0,29.94,SW,231,2.0,7.0,94,0.00,,,0.10,,2013-06-25 11:12:00,
2013-06-25 07:34:00,70.0,68.0,29.94,WSW,238,1.0,7.0,93,0.00,,,0.10,,2013-06-25 11:34:00,
2013-06-25 07:43:00,71.0,69.0,29.94,WSW,242,2.0,7.0,93,0.00,,,0.10,,2013-06-25 11:43:00,
2013-06-25 07:52:00,71.0,69.0,29.95,WSW,242,3.0,5.0,92,0.00,,,0.10,,2013-06-25 11:52:00,
2013-06-25 08:11:00,72.0,69.0,29.95,SW,234,2.0,5.0,91,0.00,,,0.10,,2013-06-25 12:11:00,
2013-06-25 08:22:00,72.0,69.0,29.95,WSW,257,3.0,6.0,89,0.00,,,0.10,,2013-06-25 12:22:00,
2013-06-25 08:43:00,73.0,70.0,29.93,SSW,211,3.0,7.0,89,0.00,,,0.10,,2013-06-25 12:43:00,
2013-06-25 09:12:00,75.0,70.0,29.93,WSW,239,5.0,12.0,85,0.00,,,0.10,,2013-06-25 13:12:00,
2013-06-25 09:34:00,74.0,70.0,29.95,NW,305,2.0,11.0,87,0.00,,,0.10,,2013-06-25 13:34:00,
2013-06-25 09:42:00,75.0,71.0,29.95,NNW,338,3.0,6.0,87,0.00,,,0.10,,2013-06-25 13:42:00,
2013-06-25 09:53:00,75.0,70.0,29.96,NNE,20,3.0,6.0,85,0.00,,,0.10,,2013-06-25 13:53:00,
2013-06-25 10:01:00,75.0,70.0,29.96,NNE,20,3.0,6.0,85,0.00,,,0.10,,2013-06-25 14:01:00,
2013-06-25 10:11:00,75.0,70.0,29.96,NNE,26,2.0,5.0,84,0.00,,,0.10,,2013-06-25 14:11:00,
2013-06-25 10:23:00,75.0,70.0,29.95,NE,56,0.0,7.0,84,0.00,,,0.10,,2013-06-25 14:23:00,
2013-06-25 10:34:00,75.0,70.0,29.95,NE,56,0.0,7.0,84,0.00,,,0.10,,2013-06-25 14:34:00,
2013-06-25 10:43:00,76.0,70.0,29.95,North,355,0.0,4.0,83,0.00,,,0.10,,2013-06-25 14:43:00,
2013-06-25 10:53:00,77.0,71.0,29.95,NE,46,0.0,5.0,82,0.00,,,0.10,,2013-06-25 14:53:00,
2013-06-25 11:02:00,77.0,71.0,29.95,NE,46,0.0,5.0,82,0.00,,,0.10,,2013-06-25 15:02:00,
2013-06-25 11:11:00,78.0,71.0,29.93,ESE,102,1.0,5.0,80,0.00,,,0.10,,2013-06-25 15:11:00,
2013-06-25 11:22:00,79.0,72.0,29.93,SSW,201,1.0,5.0,79,0.00,,,0.10,,2013-06-25 15:22:00,
2013-06-25 11:44:00,79.0,72.0,29.93,SW,231,2.0,7.0,79,0.00,,,0.10,,2013-06-25 15:44:00,
2013-06-25 11:53:00,80.0,73.0,29.92,South,181,1.0,6.0,80,0.00,,,0.10,,2013-06-25 15:53:00,
2013-06-25 12:03:00,80.0,73.0,29.92,South,181,1.0,6.0,80,0.00,,,0.10,,2013-06-25 16:03:00,
2013-06-25 12:12:00,81.0,73.0,29.92,SSW,207,5.0,9.0,77,0.00,,,0.10,,2013-06-25 16:12:00,
2013-06-25 12:35:00,83.0,75.0,29.91,SW,227,4.0,11.0,76,0.00,,,0.10,,2013-06-25 16:35:00,
2013-06-25 12:44:00,83.0,74.0,29.91,SW,214,5.0,9.0,75,0.00,,,0.10,,2013-06-25 16:44:00,
2013-06-25 13:01:00,85.0,75.0,29.90,WSW,247,8.0,12.0,71,0.00,,,0.10,,2013-06-25 17:01:00,
2013-06-25 13:11:00,85.0,75.0,29.90,SW,225,5.0,11.0,71,0.00,,,0.10,,2013-06-25 17:11:00,
2013-06-25 13:33:00,86.0,74.0,29.90,West,278,6.0,12.0,68,0.00,,,0.10,,2013-06-25 17:33:00,
2013-06-25 13:44:00,86.0,75.0,29.90,SW,236,7.0,14.0,69,0.00,,,0.10,,2013-06-25 17:44:00,
2013-06-25 13:53:00,87.0,75.0,29.90,West,271,8.0,14.0,67,0.00,,,0.10,,2013-06-25 17:53:00,
2013-06-25 14:02:00,87.0,75.0,29.90,West,271,8.0,14.0,67,0.00,,,0.10,,2013-06-25 18:02:00,
2013-06-25 14:12:00,87.0,75.0,29.89,West,262,7.0,14.0,67,0.00,,,0.10,,2013-06-25 18:12:00,
2013-06-25 14:34:00,88.0,75.0,29.88,West,275,11.0,17.0,65,0.00,,,0.10,,2013-06-25 18:34:00,
2013-06-25 14:44:00,89.0,75.0,29.88,West,259,8.0,17.0,64,0.00,,,0.10,,2013-06-25 18:44:00,
2013-06-25 14:53:00,86.0,75.0,29.88,WNW,285,8.0,13.0,69,0.00,,,0.10,,2013-06-25 18:53:00,
2013-06-25 15:12:00,84.0,75.0,29.87,WNW,296,5.0,10.0,74,0.00,,,0.10,,2013-06-25 19:12:00,
2013-06-25 15:33:00,87.0,76.0,29.85,WNW,288,5.0,9.0,70,0.00,,,0.10,,2013-06-25 19:33:00,
2013-06-25 15:44:00,89.0,75.0,29.84,WSW,257,5.0,11.0,63,0.00,,,0.10,,2013-06-25 19:44:00,
2013-06-25 15:54:00,89.0,74.0,29.84,SW,218,7.0,13.0,61,0.00,,,0.10,,2013-06-25 19:54:00,
2013-06-25 16:11:00,88.0,73.0,29.83,SW,225,7.0,14.0,61,0.00,,,0.10,,2013-06-25 20:11:00,
2013-06-25 16:33:00,89.0,73.0,29.83,West,264,7.0,15.0,59,0.00,,,0.10,,2013-06-25 20:33:00,
2013-06-25 16:42:00,89.0,73.0,29.83,SW,229,7.0,13.0,59,0.00,,,0.10,,2013-06-25 20:42:00,
2013-06-25 17:01:00,89.0,72.0,29.82,SW,228,7.0,14.0,58,0.00,,,0.10,,2013-06-25 21:01:00,
2013-06-25 17:11:00,90.0,71.0,29.82,WSW,254,8.0,14.0,54,0.00,,,0.10,,2013-06-25 21:11:00,
2013-06-25 17:34:00,90.0,73.0,29.81,SW,215,7.0,14.0,57,0.00,,,0.10,,2013-06-25 21:34:00,
2013-06-25 17:43:00,89.0,71.0,29.80,WSW,246,8.0,16.0,56,0.00,,,0.10,,2013-06-25 21:43:00,
2013-06-25 17:53:00,89.0,71.0,29.80,SSW,213,11.0,19.0,56,0.00,,,0.10,,2013-06-25 21:53:00,
2013-06-25 18:11:00,89.0,72.0,29.80,SW,230,8.0,17.0,57,0.00,,,0.10,,2013-06-25 22:11:00,
2013-06-25 18:22:00,89.0,72.0,29.79,WSW,247,8.0,14.0,58,0.00,,,0.10,,2013-06-25 22:22:00,
2013-06-25 18:34:00,88.0,72.0,29.78,South,176,7.0,15.0,60,0.00,,,0.10,,2013-06-25 22:34:00,
2013-06-25 18:42:00,88.0,72.0,29.78,South,176,7.0,15.0,60,0.00,,,0.10,,2013-06-25 22:42:00,
2013-06-25 18:52:00,89.0,72.0,29.78,WSW,244,10.0,14.0,57,0.00,,,0.10,,2013-06-25 22:52:00,
2013-06-25 19:01:00,89.0,72.0,29.78,WSW,244,10.0,14.0,57,0.00,,,0.10,,2013-06-25 23:01:00,
2013-06-25 19:11:00,88.0,72.0,29.78,WSW,241,6.0,14.0,60,0.00,,,0.10,,2013-06-25 23:11:00,
2013-06-25 19:22:00,87.0,71.0,29.78,WSW,254,7.0,14.0,60,0.00,,,0.10,,2013-06-25 23:22:00,
2013-06-25 19:34:00,87.0,71.0,29.79,SW,219,7.0,15.0,60,0.00,,,0.10,,2013-06-25 23:34:00,
2013-06-25 19:44:00,87.0,71.0,29.79,SW,219,7.0,15.0,60,0.00,,,0.10,,2013-06-25 23:44:00,
2013-06-25 19:52:00,87.0,72.0,29.79,WSW,247,7.0,15.0,61,0.00,,,0.10,,2013-06-25 23:52:00,
2013-06-25 20:02:00,87.0,72.0,29.78,West,266,4.0,10.0,62,0.00,,,0.10,,2013-06-26 00:02:00,
2013-06-25 20:11:00,87.0,72.0,29.78,West,266,4.0,10.0,62,0.00,,,0.10,,2013-06-26 00:11:00,
2013-06-25 20:22:00,86.0,71.0,29.78,West,259,4.0,11.0,62,0.00,,,0.10,,2013-06-26 00:22:00,
2013-06-25 20:33:00,86.0,71.0,29.79,SSW,208,5.0,11.0,62,0.00,,,0.10,,2013-06-26 00:33:00,
2013-06-25 20:42:00,86.0,71.0,29.79,SSW,208,5.0,11.0,62,0.00,,,0.10,,2013-06-26 00:42:00,
2013-06-25 20:53:00,85.0,71.0,29.79,WSW,240,3.0,9.0,63,0.00,,,0.10,,2013-06-26 00:53:00,
2013-06-25 21:01:00,84.0,71.0,29.79,WSW,256,0.0,5.0,66,0.00,,,0.10,,2013-06-26 01:01:00,
2013-06-25 21:11:00,84.0,71.0,29.79,WSW,256,0.0,5.0,66,0.00,,,0.10,,2013-06-26 01:11:00,
2013-06-25 21:22:00,83.0,71.0,29.79,WSW,255,1.0,4.0,68,0.00,,,0.10,,2013-06-26 01:22:00,
2013-06-25 21:33:00,82.0,71.0,29.79,SW,219,1.0,4.0,69,0.00,,,0.10,,2013-06-26 01:33:00,
2013-06-25 21:43:00,82.0,71.0,29.79,SW,219,1.0,4.0,69,0.00,,,0.10,,2013-06-26 01:43:00,
2013-06-25 21:53:00,82.0,71.0,29.80,West,262,0.0,3.0,70,0.00,,,0.10,,2013-06-26 01:53:00,
2013-06-25 22:02:00,82.0,71.0,29.80,West,262,0.0,3.0,70,0.00,,,0.10,,2013-06-26 02:02:00,
2013-06-25 22:11:00,81.0,71.0,29.80,SW,215,0.0,0.0,71,0.00,,,0.10,,2013-06-26 02:11:00,
2013-06-25 22:34:00,79.0,66.0,29.83,NE,50,5.0,9.0,64,0.00,,,0.10,,2013-06-26 02:34:00,
2013-06-25 22:43:00,74.0,64.0,29.83,ENE,57,12.0,21.0,72,0.00,,,0.10,,2013-06-26 02:43:00,
2013-06-25 23:02:00,73.0,65.0,29.85,ENE,62,9.0,16.0,77,0.00,,,0.10,,2013-06-26 03:02:00,
2013-06-25 23:11:00,71.0,66.0,29.86,NE,50,7.0,13.0,83,0.00,,,0.10,,2013-06-26 03:11:00,
2013-06-25 23:33:00,70.0,66.0,29.89,NNW,327,7.0,11.0,87,0.05,,,0.05,,2013-06-26 03:33:00,
2013-06-25 23:43:00,68.0,66.0,29.88,North,360,9.0,16.0,93,0.72,,,0.72,,2013-06-26 03:43:00,
2013-06-25 23:52:00,68.0,66.0,29.86,NE,34,0.0,9.0,94,1.02,,,1.02,,2013-06-26 03:52:00,